Regional Weather Roundup
Issued by NWS

Home | Current Version | Previous Version | Graphics & Text | Print | Product List | Glossary On
Versions: 1 2 3 4 5 6 7 8 9 10 11 12 13 14 15 16 17 18 19 20 21 22 23 24 25 26 27 28 29 30 31 32 33 34 35 36 37 38 39 40 41 42 43 44 45 46 47 48 49 50
000
ASUS43 KMPX 260201
RWRMN
WEATHER ROUNDUP FOR MINNESOTA
NATIONAL WEATHER SERVICE TWIN CITIES/CHANHASSEN MN
900 PM CDT FRI JUL 25 2014


NOTE: "FAIR" INDICATES FEW OR NO CLOUDS BELOW 12,000 FEET WITH NO
SIGNIFICANT WEATHER AND/OR OBSTRUCTIONS TO VISIBILITY. N/A MEANS
CURRENT SKY AND/OR WEATHER CONDITIONS ARE NOT AVAILABLE.

MNZ060>063-068>070-260300-
   Twin Cities Metro

CITY           SKY/WX    TMP DP  RH WIND       PRES   REMARKS
TWIN CITIES    CLOUDY    78  69  73 SE10      29.76S
ST PAUL        CLOUDY    75  71  87 SE3       29.76S
CRYSTAL        CLOUDY    79  68  69 S5        29.75R
BLAINE         CLOUDY    79  72  78 CALM      29.76
LAKEVILLE      CLOUDY    73  70  88 CALM      29.77S
EDEN PRAIRIE   CLOUDY    76  69  79 SW5       29.76R
SOUTH ST PAUL  CLOUDY    78  68  72 S3        29.76S
LAKE ELMO      CLOUDY    75  72  88 SE7       29.78S
$$
MNZ001>005-007-008-013>017-022>024-027-028-260300-
   Northwest Minnesota

CITY           SKY/WX    TMP DP  RH WIND       PRES   REMARKS
BEMIDJI        PTCLDY    73  67  81 SW6       29.75S
HALLOCK        CLEAR     72  57  60 W9        29.73R
ROSEAU         CLEAR     72  57  60 W5        29.72S
WARROAD        CLEAR     72  59  64 W7        29.73R
THIEF RVR FALL CLEAR     70  57  64 W6        29.75S
CROOKSTON      CLEAR     70  63  78 W5        29.76R
FOSSTON        CLEAR     70  57  64 NW6       29.77R
DETROIT LAKES  CLEAR     73  68  83 CALM      29.79S
MOORHEAD       CLEAR     70  61  73 NW7       29.77S
PARK RAPIDS    MOCLDY    72  68  87 W6        29.77R
$$
MNZ006-009>011-018-025>026-260300-
   North Central Minnesota

CITY           SKY/WX    TMP DP  RH WIND       PRES   REMARKS
BAUDETTE       MOCLDY    72  66  81 VRB3      29.72R
FLAG ISLAND    PTCLDY    73  66  78 SW6       29.69R
INTL FALLS     MOCLDY    70  65  84 CALM      29.73R
WASKISH        CLEAR     73  68  83 CALM      29.72F
BIG FORK       MOCLDY    72  66  83 SE1       29.76R
LONGVILLE      CLOUDY    72  70  94 CALM      29.76R
GRAND RAPIDS   CLOUDY    72  66  83 CALM      29.76S
CRANE LAKE     PTCLDY    63  63 100 CALM      29.75S
ORR            CLEAR     66  63  88 CALM      29.73R
COOK           PTCLDY    66  64  94 CALM      29.75F
$$
MNZ012-019>021-037-260300-
   Northeast Minnesota

CITY           SKY/WX    TMP DP  RH WIND       PRES   REMARKS
DULUTH         CLOUDY    69  64  84 S6        29.77S
ELY            CLOUDY    68  64  88 CALM      29.76S
HIBBING        CLOUDY    71  65  81 SE5       29.76F
EVELETH        LGT RAIN  68  64  88 S5        29.78S
DULUTH HARBOR  CLOUDY    63  61  94 CALM      29.76S
TWO HARBORS    CLOUDY    66  61  82 CALM      29.76S
SILVER BAY     PTCLDY    64  64 100 CALM      29.76S
GRAND MARAIS     N/A     54  53  97 CALM      29.75F
G MARAIS ARPRT CLOUDY    63  59  88 S5        29.80S FOG
$$
MNZ029>031-032-039>041-046>048-054>057-064-260300-
   West Central Minnesota

CITY           SKY/WX    TMP DP  RH WIND       PRES   REMARKS
FERGUS FALLS   CLEAR     72  68  88 CALM      29.76F
MORRIS         CLEAR     73  70  88 CALM      29.77S
ALEXANDRIA     CLEAR     72  68  87 W3        29.80S
ELBOW LAKE     MOCLDY    71  69  94 W3        29.78R
WADENA         CLEAR     72  66  83 CALM      29.78R
GLENWOOD       CLEAR     72  68  88 W3        29.79S
APPLETON       CLEAR     75  68  78 N3        29.77S
BENSON         CLEAR     72  70  94 CALM      29.78R
ORTONVILLE     CLEAR     73  66  78 CALM      29.78S
MADISON        CLEAR     75  70  83 NW3       29.78S
WILLMAR        FAIR      77  70  78 N3        29.79R
$$
MNZ033>034-036-042>043-049>051-058-059-260300-
   Central Minnesota

CITY           SKY/WX    TMP DP  RH WIND       PRES   REMARKS
ST CLOUD       CLOUDY    78  71  79 CALM      29.76R
SAUK CENTRE    MOCLDY    74  67  79 NW3       29.78S
PAYNESVILLE    HVY RAIN  73  69  88 CALM      29.78S
AITKIN         MOCLDY    75  68  78 S5        29.76R
PINE RIVER     CLOUDY    73  68  83 SW3       29.81R
BRAINERD       CLOUDY    73  68  84 S3        29.77R
STAPLES        CLEAR     72  66  83 CALM      29.78R
LONG PRAIRIE   FAIR      72  68  88 CALM      29.79S
LITTLE FALLS   CLOUDY    73  66  78 CALM      29.77S
LITCHFIELD     CLOUDY    77  73  88 CALM      29.77S
BUFFALO        CLOUDY    76  69  78 CALM      29.77S
MAPLE LAKE     CLOUDY    76  73  89 CALM      29.77S
$$
MNZ037-044-045-052-053-260300-
   East Central Minnesota

CITY           SKY/WX    TMP DP  RH WIND       PRES   REMARKS
PRINCETON      MOCLDY    75  72  88 CALM      29.77R
MORA           CLOUDY    70  66  88 CALM      29.79R
CAMBRIDGE      CLEAR     75  64  69 CALM      29.75S
RUSH CITY      CLOUDY    72  68  87 CALM      29.77S
MOOSE LAKE     CLOUDY    72  66  83 S3        29.75R
HINCKLEY       CLOUDY    72  68  88 CALM      29.77R
CLOQUET        CLOUDY    66  63  88 CALM      29.78R
MCGREGOR       CLOUDY    73  68  83 S7        29.77R
$$
MNZ071>073-080-081-089-090-097-098-260300-
   Southwest Minnesota

CITY           SKY/WX    TMP DP  RH WIND       PRES   REMARKS
MONTEVIDEO     PTCLDY    75  72  88 N7        29.78S
GRANITE FALLS  CLOUDY    77  72  83 N3        29.78R
CANBY          MOCLDY    76  69  79 NW5       29.80R
MARSHALL       CLOUDY    75  70  83 N6        29.77
REDWOOD FALLS  CLOUDY    79  72  79 NW5       29.76R
OLIVIA         CLOUDY    77  72  83 CALM      29.76R
PIPESTONE      MOCLDY    81  70  69 CALM      29.80S
WINDOM         MOCLDY    79  72  78 S3        29.79R
WORTHINGTON    CLEAR     75  72  88 S5        29.81R
JACKSON        CLEAR     73  68  83 S5        29.81R
TRACY          MOCLDY    77  73  86 CALM      29.78R
SLAYTON        CLOUDY    78  73  85 CALM      29.81R
$$
MNZ065>067-074>077-082>085-091>093-260300-
   South Central Minnesota

CITY           SKY/WX    TMP DP  RH WIND       PRES   REMARKS
MANKATO        CLOUDY    75  66  73 S5        29.78R
NEW ULM        MOCLDY    75  72  88 S7        29.77R
ST JAMES       CLEAR     73  70  88 SE3       29.79R
FAIRMONT       CLEAR     73  61  64 S6        29.79R
GLENCOE        CLOUDY    77  68  74 CALM      29.76S
FARIBAULT      CLOUDY    79  66  65 S3        29.79R
OWATONNA       CLOUDY    75  68  78 S5        29.80R
WASECA         CLOUDY    73  64  73 S3        29.81S
ALBERT LEA     CLOUDY    75  66  73 S3        29.80S
$$
MNZ078>079-086>088-094>096-260300-
   Southeast Minnesota

CITY           SKY/WX    TMP DP  RH WIND       PRES   REMARKS
ROCHESTER      CLOUDY    73  67  81 S6        29.82S
RED WING       DRIZZLE   75  70  83 SE7       29.77R
STANTON        CLOUDY    76  69  80 CALM      29.77R
DODGE CENTER   CLOUDY    75  70  83 SW6       29.81R
WINONA         CLOUDY    73  64  73 S6        29.81R
AUSTIN         CLOUDY    73  68  83 S5        29.80S
PRESTON        CLOUDY    71  69  92 S10       29.82S
$$
ABBREVIATIONS USED IN REMARKS
   TC - TEMPERATURES IN CELSIUS
  WCI - WIND CHILL INDEX
   HX - HEAT INDEX
  VSB - VISIBILITY
$$



USA.gov is the U.S. government's official web portal to all federal, state and local government web resources and services.